This demonstration page uses our WeatherBlox Daily Observations layout. Learn more.

Left ArrowRight Arrow

Hourly Observations for March 30, 2015

Temp ( °F °C ) Dew Point ( °F °C ) Humidity (%) Winds ( mph kmh ) Pressure ( in mb ) Visibility ( mi km ) Precip ( " mm )
12:15 am 00:15 Cloudy 43 6 16 -9 34 34 S 12 19 30.12 1020 10 16 N/A
12:35 am 00:35 Cloudy 43 6 16 -9 34 34 S 12 19 30.12 1020 10 16 N/A
12:55 am 00:55 Cloudy 43 6 18 -8 36 36 SSE 8 13 30.09 1019 10 16 N/A
1:15 am 01:15 Cloudy 43 6 18 -8 36 36 S 9 15 30.09 1019 10 16 N/A
1:35 am 01:35 Cloudy 43 6 18 -8 36 36 S 8 13 30.09 1019 10 16 N/A
1:55 am 01:55 Cloudy 43 6 19 -7 39 39 S 7 11 30.06 1018 10 16 N/A
2:15 am 02:15 Cloudy 43 6 19 -7 39 39 S 6 9 30.06 1018 10 16 N/A
2:35 am 02:35 Cloudy 43 6 19 -7 39 39 S 5 7 30.06 1018 10 16 N/A
2:55 am 02:55 Cloudy 43 6 19 -7 39 39 S 5 7 30.06 1018 10 16 N/A
3:15 am 03:15 Cloudy 43 6 21 -6 42 42 S 3 6 30.06 1018 10 16 N/A
3:35 am 03:35 Cloudy 43 6 21 -6 42 42 N N/A 30.03 1017 10 16 N/A
3:55 am 03:55 Cloudy 43 6 19 -7 39 39 S 5 7 30.03 1017 10 16 N/A
4:15 am 04:15 Cloudy 43 6 21 -6 42 42 S 9 15 30.00 1016 10 16 N/A
4:35 am 04:35 Cloudy 43 6 23 -5 46 46 S 9 15 30.00 1016 10 16 N/A
4:55 am 04:55 Cloudy 43 6 23 -5 46 46 S 8 13 30.00 1016 10 16 N/A
5:15 am 05:15 Cloudy 43 6 23 -5 46 46 S 7 11 29.97 1015 10 16 N/A
5:35 am 05:35 Cloudy 43 6 25 -4 49 49 S 6 9 29.97 1015 10 16 N/A
5:55 am 05:55 Cloudy 43 6 25 -4 49 49 SSW 6 9 29.97 1015 10 16 N/A
6:15 am 06:15 Cloudy 43 6 23 -5 46 46 SSW 7 11 29.97 1015 10 16 N/A
6:35 am 06:35 Cloudy 43 6 23 -5 46 46 SSW 6 9 29.94 1014 10 16 N/A
6:55 am 06:55 Cloudy 43 6 25 -4 49 49 SSW 7 11 29.94 1014 10 16 N/A
7:15 am 07:15 Cloudy 43 6 23 -5 46 46 SSW 7 11 29.94 1014 10 16 N/A
7:35 am 07:35 Cloudy 43 6 25 -4 49 49 SSW 7 11 29.94 1014 10 16 N/A
7:55 am 07:55 Cloudy 43 6 25 -4 49 49 SSW 7 11 29.94 1014 10 16 N/A
8:15 am 08:15 Cloudy 45 7 25 -4 46 46 SSW 7 11 29.94 1014 10 16 N/A
8:35 am 08:35 Cloudy 45 7 27 -3 49 49 SW 7 11 29.94 1014 10 16 N/A
8:55 am 08:55 Cloudy 45 7 27 -3 49 49 SW 6 9 29.94 1014 10 16 N/A
9:15 am 09:15 Cloudy 45 7 27 -3 49 49 SSW 8 13 29.94 1014 10 16 N/A
9:35 am 09:35 Cloudy 45 7 27 -3 49 49 SW 5 7 29.94 1014 10 16 N/A
9:55 am 09:55 Cloudy 45 7 27 -3 49 49 SW 5 7 29.94 1014 10 16 N/A
10:15 am 10:15 Cloudy 45 7 28 -2 53 53 W 3 6 29.94 1014 10 16 N/A
10:35 am 10:35 Cloudy 46 8 28 -2 50 50 WNW 8 13 29.97 1015 10 16 N/A
10:55 am 10:55 Cloudy 46 8 27 -3 46 46 WSW 8 13 29.97 1015 10 16 N/A
11:15 am 11:15 Cloudy 48 9 28 -2 46 46 SW 8 13 29.91 1013 10 16 N/A
11:35 am 11:35 Cloudy 52 11 30 -1 44 44 SW 8 13 29.91 1013 10 16 N/A
11:55 am 11:55 Mostly Cloudy 52 11 32 undefined 47 47 WSW 7 11 29.91 1013 10 16 N/A
12:15 pm 12:15 Partly Cloudy 54 12 32 undefined 44 44 SSW 8 13 29.91 1013 10 16 N/A
12:35 pm 12:35 Mostly Cloudy 55 13 34 1 44 44 SW 6 9 29.91 1013 10 16 N/A
12:55 pm 12:55 Partly Cloudy 57 14 32 undefined 39 39 WNW 14 22 29.88 1012 10 16 N/A
1:15 pm 13:15 Sunny 59 15 32 undefined 36 36 NW 17 28 29.88 1012 10 16 N/A
1:35 pm 13:35 Sunny 59 15 32 undefined 36 36 WNW 22 35 29.88 1012 10 16 N/A
1:55 pm 13:55 Partly Cloudy 59 15 32 undefined 36 36 W 13 20 29.88 1012 10 16 N/A
2:15 pm 14:15 Partly Cloudy 61 16 32 undefined 34 34 NW 20 31 29.88 1012 10 16 N/A
2:35 pm 14:35 Partly Cloudy 59 15 32 undefined 36 36 WNW 17 28 29.88 1012 10 16 N/A
2:55 pm 14:55 Sunny 61 16 32 undefined 34 34 WNW 18 30 29.88 1012 10 16 N/A
3:15 pm 15:15 Sunny 59 15 32 undefined 36 36 WNW 13 20 29.88 1012 10 16 N/A
3:35 pm 15:35 Sunny 61 16 32 undefined 34 34 W 16 26 29.85 1011 10 16 N/A
3:55 pm 15:55 Partly Cloudy 61 16 32 undefined 34 34 W 20 31 29.85 1011 10 16 N/A
4:15 pm 16:15 Sunny 61 16 32 undefined 34 34 WNW 18 30 29.85 1011 10 16 N/A
4:35 pm 16:35 Sunny 61 16 30 -1 31 31 WNW 16 26 29.85 1011 10 16 N/A
4:55 pm 16:55 Partly Cloudy 61 16 30 -1 31 31 WNW 21 33 29.85 1011 10 16 N/A
5:15 pm 17:15 Partly Cloudy 61 16 30 -1 31 31 NW 15 24 29.88 1012 10 16 N/A
5:35 pm 17:35 Mostly Cloudy 61 16 30 -1 31 31 W 12 19 29.88 1012 10 16 N/A
5:55 pm 17:55 Partly Cloudy 61 16 30 -1 31 31 WNW 12 19 29.88 1012 10 16 N/A
6:15 pm 18:15 Mostly Cloudy 61 16 28 -2 29 29 WNW 16 26 29.88 1012 10 16 N/A
6:35 pm 18:35 Mostly Cloudy 59 15 28 -2 31 31 WNW 20 31 29.88 1012 10 16 N/A
6:55 pm 18:55 Partly Cloudy 57 14 28 -2 33 33 NW 21 33 29.88 1012 10 16 N/A
7:15 pm 19:15 Sunny 55 13 28 -2 36 36 NW 16 26 29.91 1013 10 16 N/A
7:35 pm 19:35 Clear 54 12 28 -2 38 38 NNW 10 17 29.91 1013 10 16 N/A
7:55 pm 19:55 Clear 54 12 28 -2 38 38 NW 13 20 29.94 1014 10 16 N/A
8:15 pm 20:15 Clear 54 12 28 -2 38 38 NW 12 19 29.94 1014 10 16 N/A
8:35 pm 20:35 Clear 52 11 27 -3 38 38 NW 10 17 29.94 1014 10 16 N/A
8:55 pm 20:55 Clear 52 11 27 -3 38 38 NW 8 13 29.97 1015 10 16 N/A
9:15 pm 21:15 Clear 50 10 27 -3 40 40 WNW 6 9 29.97 1015 10 16 N/A
9:35 pm 21:35 Clear 50 10 27 -3 40 40 W 7 11 29.97 1015 10 16 N/A
9:55 pm 21:55 Clear 46 8 27 -3 46 46 WNW 7 11 30.00 1016 10 16 N/A
10:15 pm 22:15 Clear 46 8 27 -3 46 46 WNW 8 13 30.00 1016 10 16 N/A
10:35 pm 22:35 Clear 48 9 27 -3 43 43 WNW 8 13 30.00 1016 10 16 N/A
10:55 pm 22:55 Clear 50 10 27 -3 40 40 WNW 8 13 29.97 1015 10 16 N/A
11:15 pm 23:15 Clear 50 10 27 -3 40 40 WNW 7 11 29.97 1015 10 16 N/A
11:35 pm 23:35 Clear 48 9 27 -3 43 43 S 5 7 30.00 1016 10 16 N/A
11:55 pm 23:55 Clear 46 8 27 -3 46 46 SSW 6 9 30.00 1016 10 16 N/A

Powered by AerisWeather